QPF
0.01 0.02 0.03 0.06 0.07 0.08 0.08 0.08 0.08 0.07 0.08 0.08 0.05 0.01 0.01 0.01 0.00 0.00 0.00 0.00 0.00 0.00 0.00 0.00 0.00 0.00 0.00 0.00 0.00 0.00 0.00 0.00 0.00 0.00 0.00 0.00 0.00 0.00
0.01 0.02 0.04 0.06 0.08 0.09 0.10 0.10 0.09 0.06 0.06 0.06 0.06 0.02 0.01 0.01 0.01 0.00 0.00 0.00 0.00 0.00 0.00 0.00 0.00 0.00 0.00 0.00 0.00 0.00 0.00 0.00 0.00 0.00 0.00 0.00 0.00 0.00
0.00 0.01 0.03 0.06 0.10 0.12 0.12 0.11 0.09 0.08 0.06 0.06 0.04 0.02 0.01 0.01 0.02 0.02 0.01 0.00 0.00 0.00 0.00 0.00 0.00 0.00 0.00 0.00 0.00 0.00 0.00 0.00 0.00 0.00 0.00 0.00 0.00 0.00
0.00 0.00 0.01 0.03 0.04 0.06 0.08 0.08 0.09 0.09 0.08 0.08 0.06 0.03 0.01 0.01 0.01 0.02 0.02 0.02 0.01 0.01 0.00 0.00 0.00 0.00 0.00 0.00 0.00 0.00 0.00 0.00 0.00 0.00 0.00 0.00 0.00 0.00
0.00 0.00 0.01 0.01 0.02 0.04 0.05 0.06 0.07 0.07 0.07 0.07 0.07 0.06 0.03 0.02 0.01 0.01 0.02 0.03 0.03 0.02 0.01 0.00 0.00 0.00 0.00 0.00 0.00 0.00 0.00 0.00 0.00 0.00 0.00 0.00 0.00 0.00
0.00 0.00 0.00 0.01 0.02 0.04 0.05 0.07 0.09 0.10 0.10 0.08 0.07 0.07 0.06 0.03 0.02 0.01 0.02 0.03 0.03 0.02 0.01 0.00 0.00 0.00 0.00 0.00 0.00 0.00 0.00 0.00 0.00 0.00 0.00 0.00 0.00 0.00
0.00 0.00 0.00 0.01 0.01 0.03 0.03 0.07 0.10 0.11 0.11 0.11 0.11 0.10 0.08 0.06 0.04 0.03 0.03 0.03 0.02 0.01 0.00 0.00 0.00 0.00 0.00 0.00 0.00 0.00 0.00 0.00 0.00 0.00 0.00 0.00 0.00 0.00
0.02 0.00 0.00 0.00 0.00 0.01 0.01 0.03 0.06 0.08 0.09 0.10 0.11 0.11 0.10 0.09 0.08 0.07 0.04 0.03 0.03 0.02 0.01 0.01 0.00 0.00 0.00 0.00 0.00 0.00 0.00 0.00 0.00 0.00 0.00 0.00 0.00 0.00
0.05 0.02 0.00 0.00 0.00 0.00 0.00 0.01 0.01 0.01 0.02 0.04 0.06 0.08 0.08 0.09 0.09 0.08 0.07 0.06 0.07 0.05 0.02 0.03 0.02 0.01 0.01 0.00 0.00 0.00 0.00 0.00 0.00 0.00 0.00 0.00 0.00 0.00
0.12 0.05 0.02 0.01 0.01 0.01 0.00 0.01 0.01 0.01 0.01 0.01 0.02 0.03 0.04 0.05 0.07 0.08 0.10 0.09 0.08 0.06 0.04 0.03 0.03 0.02 0.01 0.01 0.00 0.00 0.00 0.00 0.00 0.00 0.00 0.00 0.00 0.00
0.14 0.10 0.08 0.05 0.05 0.02 0.01 0.02 0.01 0.01 0.00 0.00 0.00 0.01 0.01 0.02 0.04 0.07 0.12 0.15 0.16 0.15 0.14 0.11 0.08 0.06 0.03 0.02 0.01 0.00 0.00 0.00 0.00 0.00 0.00 0.00 0.00 0.00
0.08 0.09 0.14 0.12 0.10 0.06 0.02 0.03 0.05 0.03 0.01 0.01 0.00 0.01 0.01 0.03 0.06 0.09 0.15 0.21 0.24 0.23 0.20 0.17 0.16 0.14 0.11 0.06 0.03 0.01 0.01 0.00 0.00 0.00 0.00 0.00 0.00 0.00
0.05 0.06 0.06 0.09 0.08 0.07 0.03 0.04 0.06 0.03 0.01 0.02 0.01 0.01 0.02 0.04 0.06 0.07 0.12 0.17 0.21 0.24 0.24 0.21 0.19 0.18 0.15 0.11 0.06 0.03 0.02 0.01 0.00 0.00 0.00 0.00 0.00 0.00
0.02 0.02 0.02 0.03 0.04 0.04 0.03 0.04 0.03 0.02 0.03 0.03 0.02 0.01 0.02 0.03 0.04 0.05 0.06 0.07 0.10 0.14 0.15 0.13 0.12 0.12 0.11 0.08 0.06 0.04 0.02 0.02 0.01 0.01 0.00 0.00 0.00 0.00
0.00 0.00 0.00 0.01 0.01 0.03 0.03 0.03 0.03 0.03 0.04 0.05 0.04 0.02 0.02 0.02 0.02 0.02 0.03 0.04 0.04 0.03 0.04 0.04 0.05 0.05 0.04 0.03 0.02 0.02 0.02 0.01 0.01 0.01 0.01 0.01 0.01 0.01
0.01 0.01 0.01 0.01 0.02 0.03 0.03 0.03 0.04 0.04 0.04 0.05 0.04 0.02 0.01 0.02 0.02 0.02 0.02 0.03 0.03 0.03 0.01 0.01 0.02 0.03 0.03 0.03 0.02 0.02 0.02 0.02 0.01 0.02 0.02 0.02 0.03 0.03
0.01 0.03 0.03 0.03 0.03 0.03 0.03 0.03 0.03 0.04 0.04 0.04 0.04 0.03 0.02 0.02 0.02 0.01 0.02 0.02 0.03 0.03 0.03 0.02 0.01 0.01 0.01 0.01 0.02 0.02 0.02 0.03 0.03 0.03 0.02 0.01 0.02 0.02
0.04 0.07 0.07 0.07 0.07 0.06 0.05 0.05 0.05 0.06 0.06 0.05 0.05 0.04 0.04 0.03 0.03 0.03 0.02 0.03 0.03 0.04 0.04 0.02 0.01 0.01 0.01 0.01 0.01 0.02 0.03 0.04 0.04 0.04 0.02 0.01 0.01 0.01
0.07 0.09 0.10 0.09 0.08 0.07 0.06 0.07 0.05 0.04 0.04 0.04 0.04 0.03 0.03 0.02 0.02 0.02 0.02 0.02 0.02 0.02 0.02 0.02 0.01 0.01 0.02 0.02 0.03 0.01 0.03 0.04 0.04 0.03 0.03 0.02 0.01 0.01
0.06 0.09 0.12 0.10 0.09 0.07 0.07 0.07 0.05 0.03 0.02 0.02 0.02 0.01 0.01 0.01 0.01 0.01 0.01 0.01 0.01 0.01 0.02 0.02 0.03 0.03 0.03 0.03 0.03 0.02 0.02 0.03 0.03 0.03 0.02 0.02 0.01 0.01
0.04 0.08 0.08 0.07 0.06 0.05 0.05 0.04 0.02 0.01 0.00 0.00 0.00 0.00 0.00 0.00 0.01 0.01 0.01 0.01 0.01 0.02 0.02 0.02 0.02 0.02 0.01 0.02 0.03 0.04 0.04 0.03 0.02 0.01 0.01 0.01 0.01 0.01
0.01 0.01 0.02 0.02 0.01 0.01 0.01 0.01 0.01 0.01 0.00 0.00 0.00 0.00 0.01 0.01 0.01 0.01 0.01 0.01 0.02 0.01 0.01 0.01 0.01 0.01 0.02 0.03 0.04 0.03 0.02 0.02 0.02 0.02 0.02 0.01 0.01 0.01
0.00 0.00 0.00 0.00 0.00 0.00 0.00 0.00 0.00 0.00 0.00 0.00 0.00 0.01 0.01 0.01 0.01 0.01 0.01 0.01 0.01 0.01 0.01 0.01 0.01 0.01 0.01 0.01 0.01 0.02 0.02 0.02 0.01 0.01 0.01 0.01 0.01 0.01
MSLP
1015.14 1015.32 1015.49 1015.65 1015.78 1015.89 1015.96 1016.01 1016.03 1016.03 1016.00 1015.97 1015.93 1015.91 1015.91 1015.97 1016.08 1016.25 1016.49 1016.78 1017.11 1017.46 1017.78 1018.06 1018.29 1018.44 1018.53 1018.56 1018.55 1018.53 1018.50 1018.48 1018.47 1018.44 1018.39 1018.28 1018.12 1017.89
1014.89 1015.03 1015.16 1015.27 1015.37 1015.45 1015.51 1015.54 1015.57 1015.57 1015.56 1015.55 1015.53 1015.53 1015.56 1015.62 1015.73 1015.90 1016.13 1016.41 1016.72 1017.06 1017.39 1017.69 1017.95 1018.14 1018.27 1018.34 1018.36 1018.36 1018.35 1018.33 1018.31 1018.29 1018.25 1018.18 1018.06 1017.89
1014.60 1014.69 1014.77 1014.85 1014.93 1014.99 1015.05 1015.10 1015.14 1015.17 1015.19 1015.21 1015.23 1015.26 1015.30 1015.37 1015.48 1015.62 1015.82 1016.05 1016.32 1016.62 1016.92 1017.21 1017.46 1017.67 1017.83 1017.94 1018.00 1018.03 1018.04 1018.05 1018.04 1018.04 1018.02 1017.98 1017.91 1017.80
1014.24 1014.30 1014.36 1014.42 1014.49 1014.57 1014.64 1014.71 1014.79 1014.86 1014.92 1014.99 1015.05 1015.11 1015.18 1015.25 1015.34 1015.45 1015.59 1015.76 1015.96 1016.18 1016.41 1016.65 1016.88 1017.09 1017.26 1017.40 1017.50 1017.57 1017.62 1017.66 1017.68 1017.71 1017.72 1017.72 1017.70 1017.65
1013.86 1013.89 1013.94 1014.01 1014.09 1014.18 1014.28 1014.40 1014.52 1014.64 1014.76 1014.88 1014.98 1015.09 1015.17 1015.25 1015.32 1015.39 1015.46 1015.55 1015.65 1015.78 1015.93 1016.09 1016.27 1016.44 1016.61 1016.77 1016.91 1017.03 1017.12 1017.20 1017.27 1017.32 1017.37 1017.41 1017.43 1017.44
1013.48 1013.49 1013.54 1013.62 1013.72 1013.84 1013.99 1014.15 1014.31 1014.48 1014.66 1014.82 1014.97 1015.11 1015.22 1015.30 1015.36 1015.39 1015.40 1015.41 1015.42 1015.44 1015.49 1015.57 1015.68 1015.81 1015.97 1016.13 1016.29 1016.45 1016.59 1016.72 1016.83 1016.92 1017.00 1017.08 1017.14 1017.19
1013.14 1013.15 1013.19 1013.28 1013.41 1013.56 1013.74 1013.93 1014.14 1014.34 1014.55 1014.75 1014.94 1015.11 1015.24 1015.34 1015.39 1015.40 1015.37 1015.32 1015.25 1015.18 1015.14 1015.14 1015.17 1015.25 1015.38 1015.53 1015.71 1015.90 1016.07 1016.24 1016.39 1016.51 1016.62 1016.72 1016.82 1016.90
1012.89 1012.88 1012.93 1013.03 1013.16 1013.33 1013.53 1013.73 1013.95 1014.17 1014.40 1014.61 1014.83 1015.02 1015.18 1015.29 1015.36 1015.37 1015.32 1015.24 1015.12 1015.00 1014.89 1014.82 1014.79 1014.82 1014.90 1015.04 1015.21 1015.40 1015.60 1015.79 1015.96 1016.11 1016.24 1016.35 1016.46 1016.55
1012.74 1012.72 1012.77 1012.86 1012.99 1013.16 1013.34 1013.54 1013.74 1013.95 1014.16 1014.38 1014.59 1014.80 1014.98 1015.12 1015.22 1015.25 1015.23 1015.15 1015.02 1014.88 1014.73 1014.61 1014.54 1014.52 1014.57 1014.67 1014.82 1014.99 1015.19 1015.38 1015.55 1015.71 1015.84 1015.96 1016.06 1016.15
1012.73 1012.69 1012.72 1012.79 1012.91 1013.05 1013.21 1013.36 1013.53 1013.69 1013.87 1014.06 1014.26 1014.46 1014.66 1014.83 1014.97 1015.05 1015.07 1015.03 1014.94 1014.81 1014.67 1014.53 1014.43 1014.37 1014.37 1014.42 1014.53 1014.67 1014.84 1015.00 1015.16 1015.29 1015.41 1015.51 1015.60 1015.68
1012.83 1012.77 1012.78 1012.83 1012.92 1013.02 1013.12 1013.23 1013.33 1013.44 1013.57 1013.71 1013.88 1014.07 1014.27 1014.47 1014.65 1014.79 1014.88 1014.90 1014.86 1014.78 1014.66 1014.54 1014.42 1014.33 1014.29 1014.29 1014.34 1014.42 1014.53 1014.65 1014.76 1014.86 1014.94 1015.02 1015.08 1015.15
1013.01 1012.93 1012.91 1012.94 1012.99 1013.05 1013.11 1013.16 1013.21 1013.25 1013.31 1013.41 1013.53 1013.70 1013.90 1014.11 1014.33 1014.52 1014.67 1014.77 1014.80 1014.77 1014.70 1014.59 1014.48 1014.37 1014.28 1014.23 1014.21 1014.22 1014.25 1014.30 1014.35 1014.41 1014.45 1014.49 1014.53 1014.58
1013.23 1013.13 1013.09 1013.10 1013.12 1013.15 1013.17 1013.17 1013.17 1013.16 1013.17 1013.21 1013.30 1013.43 1013.61 1013.83 1014.06 1014.29 1014.49 1014.65 1014.74 1014.78 1014.75 1014.67 1014.56 1014.43 1014.31 1014.20 1014.11 1014.04 1014.00 1013.97 1013.96 1013.96 1013.96 1013.97 1013.99 1014.02
1013.45 1013.34 1013.29 1013.28 1013.28 1013.29 1013.29 1013.28 1013.24 1013.20 1013.17 1013.17 1013.22 1013.32 1013.47 1013.67 1013.90 1014.14 1014.37 1014.56 1014.70 1014.77 1014.78 1014.72 1014.62 1014.48 1014.33 1014.16 1014.02 1013.88 1013.77 1013.67 1013.60 1013.55 1013.51 1013.49 1013.49 1013.51
1013.66 1013.53 1013.47 1013.45 1013.46 1013.47 1013.47 1013.45 1013.41 1013.36 1013.32 1013.29 1013.31 1013.37 1013.49 1013.66 1013.86 1014.09 1014.31 1014.51 1014.66 1014.75 1014.78 1014.73 1014.64 1014.49 1014.31 1014.12 1013.92 1013.73 1013.57 1013.42 1013.30 1013.21 1013.15 1013.11 1013.09 1013.10
1013.85 1013.71 1013.64 1013.62 1013.64 1013.66 1013.68 1013.68 1013.66 1013.63 1013.59 1013.55 1013.55 1013.58 1013.65 1013.78 1013.93 1014.11 1014.30 1014.48 1014.62 1014.71 1014.73 1014.70 1014.60 1014.45 1014.27 1014.05 1013.83 1013.61 1013.41 1013.23 1013.09 1012.97 1012.89 1012.84 1012.82 1012.82
1014.07 1013.91 1013.84 1013.82 1013.84 1013.89 1013.94 1013.97 1013.98 1013.97 1013.95 1013.92 1013.90 1013.90 1013.93 1014.00 1014.10 1014.22 1014.35 1014.48 1014.59 1014.65 1014.66 1014.62 1014.53 1014.38 1014.20 1013.98 1013.76 1013.53 1013.33 1013.14 1012.98 1012.86 1012.77 1012.71 1012.68 1012.66
1014.36 1014.20 1014.12 1014.10 1014.13 1014.19 1014.26 1014.32 1014.36 1014.38 1014.37 1014.35 1014.32 1014.29 1014.28 1014.29 1014.33 1014.39 1014.45 1014.52 1014.58 1014.60 1014.60 1014.54 1014.45 1014.31 1014.14 1013.93 1013.72 1013.51 1013.31 1013.14 1012.98 1012.87 1012.78 1012.71 1012.67 1012.64
1014.78 1014.62 1014.53 1014.51 1014.54 1014.60 1014.68 1014.75 1014.80 1014.84 1014.84 1014.81 1014.77 1014.72 1014.67 1014.63 1014.61 1014.60 1014.60 1014.62 1014.62 1014.61 1014.57 1014.51 1014.41 1014.28 1014.11 1013.93 1013.74 1013.55 1013.38 1013.22 1013.08 1012.97 1012.88 1012.81 1012.75 1012.70
1015.37 1015.21 1015.12 1015.08 1015.10 1015.15 1015.21 1015.27 1015.32 1015.34 1015.34 1015.30 1015.24 1015.17 1015.09 1015.01 1014.93 1014.87 1014.82 1014.78 1014.74 1014.69 1014.63 1014.55 1014.44 1014.31 1014.16 1014.00 1013.83 1013.66 1013.51 1013.36 1013.24 1013.14 1013.05 1012.97 1012.90 1012.82
1016.11 1015.96 1015.87 1015.82 1015.81 1015.82 1015.85 1015.88 1015.90 1015.89 1015.86 1015.81 1015.72 1015.62 1015.52 1015.41 1015.30 1015.20 1015.11 1015.03 1014.96 1014.88 1014.79 1014.69 1014.58 1014.45 1014.30 1014.15 1013.98 1013.83 1013.69 1013.56 1013.45 1013.35 1013.26 1013.18 1013.09 1012.98
1016.94 1016.82 1016.73 1016.66 1016.62 1016.60 1016.58 1016.55 1016.52 1016.47 1016.41 1016.32 1016.21 1016.09 1015.96 1015.83 1015.70 1015.58 1015.47 1015.37 1015.27 1015.17 1015.07 1014.95 1014.82 1014.68 1014.53 1014.36 1014.21 1014.05 1013.91 1013.79 1013.68 1013.59 1013.50 1013.41 1013.30 1013.18
1017.77 1017.69 1017.61 1017.53 1017.47 1017.40 1017.32 1017.24 1017.15 1017.05 1016.94 1016.82 1016.68 1016.54 1016.40 1016.26 1016.13 1016.01 1015.89 1015.78 1015.67 1015.56 1015.44 1015.30 1015.16 1015.00 1014.83 1014.66 1014.49 1014.33 1014.18 1014.06 1013.95 1013.85 1013.76 1013.67 1013.56 1013.43
Thickness
5689 5688 5685 5684 5682 5680 5679 5677 5672 5670 5671 5678 5680 5685 5684 5684 5685 5684 5687 5686 5685 5685 5685 5686 5687 5688 5690 5691 5691 5692 5693 5695 5697 5699 5701 5703 5706 5709
5682 5681 5681 5680 5678 5677 5676 5676 5674 5671 5669 5674 5675 5680 5680 5681 5681 5683 5686 5685 5683 5682 5682 5682 5683 5684 5685 5686 5687 5688 5689 5691 5693 5695 5696 5698 5701 5703
5678 5677 5677 5676 5674 5674 5674 5673 5672 5670 5668 5670 5673 5674 5676 5678 5680 5681 5684 5684 5684 5681 5680 5679 5679 5680 5681 5682 5683 5684 5685 5686 5688 5691 5692 5694 5697 5699
5674 5673 5673 5672 5671 5672 5671 5671 5670 5669 5667 5666 5668 5669 5672 5676 5677 5679 5681 5683 5684 5683 5680 5678 5678 5678 5678 5679 5680 5680 5681 5682 5684 5686 5688 5690 5692 5694
5671 5670 5670 5669 5667 5669 5669 5669 5668 5668 5667 5665 5666 5667 5669 5670 5671 5674 5677 5679 5680 5681 5679 5678 5677 5677 5677 5677 5678 5678 5678 5679 5680 5682 5684 5686 5688 5690
5668 5666 5665 5665 5665 5667 5667 5666 5666 5665 5664 5662 5662 5663 5664 5665 5665 5667 5671 5674 5676 5679 5679 5679 5678 5677 5676 5676 5676 5676 5676 5677 5677 5678 5679 5681 5683 5685
5664 5664 5663 5660 5659 5661 5662 5663 5662 5661 5660 5659 5658 5659 5659 5660 5661 5664 5666 5669 5672 5675 5677 5679 5679 5679 5679 5677 5676 5676 5676 5675 5675 5675 5675 5676 5677 5678
5660 5660 5659 5654 5653 5652 5654 5655 5656 5658 5657 5656 5656 5655 5657 5659 5659 5659 5660 5662 5664 5671 5670 5674 5677 5678 5680 5681 5681 5678 5675 5674 5673 5672 5672 5671 5672 5672
5657 5656 5654 5653 5649 5653 5650 5648 5651 5652 5652 5655 5655 5655 5657 5657 5656 5656 5655 5656 5657 5660 5660 5664 5671 5673 5677 5678 5676 5674 5672 5671 5670 5669 5668 5667 5667 5667
5649 5650 5650 5650 5647 5649 5649 5650 5651 5652 5651 5652 5654 5654 5654 5654 5653 5652 5651 5650 5651 5652 5652 5654 5659 5662 5667 5670 5670 5668 5667 5666 5665 5664 5664 5663 5662 5662
5643 5643 5644 5645 5640 5637 5641 5645 5646 5647 5645 5644 5644 5646 5645 5646 5646 5647 5646 5645 5645 5645 5644 5644 5647 5649 5653 5657 5660 5659 5659 5659 5659 5659 5658 5658 5657 5656
5636 5636 5632 5633 5631 5630 5634 5638 5638 5642 5643 5643 5641 5641 5642 5642 5641 5642 5642 5640 5639 5639 5639 5637 5637 5638 5640 5644 5646 5649 5651 5652 5653 5653 5652 5651 5650 5649
5628 5628 5628 5623 5623 5624 5626 5631 5633 5634 5639 5639 5639 5639 5639 5639 5639 5638 5638 5637 5636 5635 5635 5633 5632 5631 5631 5634 5636 5638 5640 5643 5645 5647 5646 5644 5643 5642
5616 5617 5617 5614 5616 5618 5621 5624 5625 5626 5633 5633 5633 5633 5634 5634 5635 5635 5634 5634 5633 5632 5631 5629 5628 5627 5626 5627 5629 5631 5632 5633 5635 5636 5637 5635 5634 5633
5605 5603 5604 5606 5608 5613 5615 5618 5621 5625 5626 5627 5628 5628 5629 5629 5629 5629 5629 5628 5628 5627 5626 5624 5623 5622 5620 5620 5621 5622 5623 5624 5625 5624 5625 5624 5624 5624
5597 5596 5595 5597 5600 5604 5609 5614 5618 5621 5622 5623 5625 5624 5623 5623 5622 5622 5622 5622 5622 5621 5620 5618 5616 5615 5614 5613 5612 5613 5614 5614 5615 5614 5613 5613 5613 5613
5589 5590 5591 5592 5595 5599 5603 5608 5612 5616 5618 5620 5620 5619 5618 5618 5616 5616 5615 5615 5614 5613 5612 5611 5610 5608 5607 5607 5606 5607 5607 5606 5605 5604 5602 5602 5604 5604
5586 5585 5585 5586 5589 5592 5597 5602 5606 5610 5613 5615 5615 5615 5614 5613 5611 5610 5609 5609 5608 5607 5605 5604 5602 5601 5602 5603 5598 5598 5597 5596 5595 5594 5592 5591 5593 5595
5584 5582 5581 5582 5585 5588 5593 5597 5600 5604 5607 5609 5610 5609 5609 5608 5607 5605 5604 5602 5601 5599 5597 5595 5592 5589 5588 5589 5589 5583 5583 5582 5581 5581 5580 5580 5580 5582
5581 5580 5580 5581 5583 5586 5589 5593 5596 5599 5602 5604 5604 5603 5603 5602 5600 5598 5596 5593 5592 5590 5588 5585 5580 5577 5574 5573 5572 5571 5567 5567 5566 5566 5566 5567 5567 5568
5581 5580 5580 5581 5583 5585 5588 5591 5593 5595 5597 5598 5598 5597 5597 5596 5594 5592 5590 5585 5583 5582 5578 5575 5571 5565 5563 5562 5560 5560 5557 5552 5549 5548 5548 5549 5551 5554
5583 5582 5581 5582 5583 5585 5587 5588 5590 5590 5591 5591 5591 5591 5591 5591 5589 5587 5585 5583 5579 5575 5571 5568 5564 5561 5557 5554 5552 5549 5546 5543 5539 5534 5531 5529 5529 5532
5587 5585 5584 5584 5585 5586 5587 5587 5588 5588 5587 5588 5588 5588 5588 5587 5586 5584 5581 5578 5574 5571 5568 5564 5560 5556 5552 5547 5544 5540 5537 5533 5529 5526 5523 5517 5513 5511